Weather History for Rockland, ME

Change the Weather History Date:

Wednesday, February 6, 2013

  Actual Average Record
Temperature  
Mean Temperature 26 °F -  
Max Temperature 35 °F 30 °F 42 °F (2005)
Min Temperature 17 °F 14 °F -5 °F (2009)
Degree Days  
Heating Degree Days 39    
Moisture  
Dew Point 14 °F    
Average Humidity 63    
Maximum Humidity 93    
Minimum Humidity 28    
Precipitation  
Precipitation 0.01 in - - ()
Sea Level Pressure  
Sea Level Pressure 30.00 in    
Wind  
Wind Speed 8 mph (NW)    
Max Wind Speed 18 mph    
Max Gust Speed 25 mph    
Visibility 9 miles    
Events      
Averages and records for this station are not official NWS values.
T = Trace of Precipitation, MM = Missing Value Source: NWS Daily Summary

Daily Weather History Graph

Daily Weather History Graph

Search for Another Location

Airport:

Trip Planner

Search our weather history database for the weather conditions in past years. The results will help you decide how hot, cold, wet, or windy it might be!

Date:

Astronomy

Feb. 06, 2013 Rise Set
Actual Time 6:47 AM EST 4:53 PM EST
Civil Twilight 6:17 AM EST 5:24 PM EST
Nautical Twilight 5:43 AM EST 5:58 PM EST
Astronomical Twilight 5:09 AM EST 6:32 PM EST
Moon 3:32 AM EST (2/6) 1:04 PM EST (2/6)
Length of Visible Light 11h 06m
Length of Day
10h 06m
Waning Crescent, 17% of the Moon is Illuminated
Feb 6
Waning Crescent
Feb 10
New
Feb 17
First Quarter
Feb 25
Full
Mar 4
Last Quarter

Hourly Weather History & Observations

Time (EST) Temp. Windchill Dew Point Humidity Pressure Visibility Wind Dir Wind Speed Gust Speed Precip Events Conditions
12:15 AM 19.4 °F 10.4 °F 10.4 °F 68% 29.98 in 10.0 mi NE 6.9 mph - N/A   Clear
12:35 AM 19.4 °F 10.4 °F 10.4 °F 68% 29.98 in 10.0 mi NE 6.9 mph - N/A   Clear
12:55 AM 19.4 °F 10.4 °F 10.4 °F 68% 29.97 in 10.0 mi NE 6.9 mph - N/A   Clear
1:15 AM 19.4 °F 11.5 °F 10.4 °F 68% 29.97 in 10.0 mi NNE 5.8 mph - N/A   Mostly Cloudy
1:35 AM 21.2 °F 11.7 °F 12.2 °F 68% 29.97 in 10.0 mi NE 8.1 mph - N/A   Mostly Cloudy
2:15 AM 21.2 °F 10.9 °F 14.0 °F 74% 29.96 in 10.0 mi ENE 9.2 mph - N/A   Partly Cloudy
2:35 AM 21.2 °F 11.7 °F 14.0 °F 74% 29.96 in 10.0 mi NE 8.1 mph - N/A   Clear
2:55 AM 21.2 °F 12.6 °F 15.8 °F 80% 29.95 in 10.0 mi NE 6.9 mph - N/A   Clear
3:15 AM 21.2 °F 12.6 °F 14.0 °F 74% 29.95 in 10.0 mi NE 6.9 mph - N/A   Clear
3:35 AM 21.2 °F 10.9 °F 15.8 °F 80% 29.95 in 10.0 mi NE 9.2 mph - N/A   Clear
3:55 AM 23.0 °F 13.9 °F 15.8 °F 74% 29.94 in 10.0 mi ENE 8.1 mph - N/A   Clear
4:15 AM 23.0 °F 12.4 °F 15.8 °F 74% 29.93 in 10.0 mi ENE 10.4 mph - N/A   Clear
4:35 AM 23.0 °F 15.8 °F 17.6 °F 80% 29.94 in 10.0 mi NE 5.8 mph - N/A   Clear
4:55 AM 23.0 °F 15.8 °F 17.6 °F 80% 29.95 in 10.0 mi NNE 5.8 mph - N/A   Mostly Cloudy
5:15 AM 23.0 °F 17.0 °F 19.4 °F 86% 29.95 in 10.0 mi NNE 4.6 mph - N/A   Overcast
5:35 AM 24.8 °F 16.9 °F 19.4 °F 80% 29.95 in 10.0 mi NNE 6.9 mph - N/A   Overcast
5:55 AM 24.8 °F 16.1 °F 21.2 °F 86% 29.94 in 4.0 mi NE 8.1 mph - N/A   Overcast
6:15 AM 24.8 °F 19.1 °F 19.4 °F 80% 29.94 in 3.0 mi NNE 4.6 mph - N/A   Overcast
6:35 AM 24.8 °F 16.9 °F 21.2 °F 86% 29.95 in 2.5 mi NE 6.9 mph - N/A   Overcast
7:15 AM 23.0 °F 18.4 °F 21.2 °F 93% 29.96 in 1.0 mi NW 3.5 mph - N/A   Overcast
7:35 AM 23.0 °F 12.4 °F 21.2 °F 93% 29.96 in 0.8 mi NE 10.4 mph - N/A   Overcast
7:55 AM 23.0 °F 17.0 °F 21.2 °F 93% 29.96 in 3.0 mi North 4.6 mph - N/A   Mostly Cloudy
8:15 AM 23.0 °F 14.7 °F 21.2 °F 93% 29.96 in 5.0 mi NNE 6.9 mph - N/A   Clear
8:35 AM 23.0 °F 17.0 °F 19.4 °F 86% 29.96 in 10.0 mi NNE 4.6 mph - N/A   Mostly Cloudy
8:55 AM 24.8 °F 17.9 °F 21.2 °F 86% 29.96 in 10.0 mi NNE 5.8 mph - N/A   Mostly Cloudy
9:15 AM 24.8 °F 20.5 °F 21.2 °F 86% 29.96 in 10.0 mi North 3.5 mph - N/A   Partly Cloudy
9:35 AM 24.8 °F 19.1 °F 21.2 °F 86% 29.96 in 4.0 mi North 4.6 mph - N/A   Clear
9:55 AM 26.6 °F 22.6 °F 21.2 °F 80% 29.96 in 10.0 mi NW 3.5 mph - N/A   Clear
10:15 AM 26.6 °F - 21.2 °F 80% 29.96 in 5.0 mi Calm Calm - N/A   Clear
10:35 AM 28.4 °F - 23.0 °F 80% 29.95 in 10.0 mi Calm Calm - N/A   Mostly Cloudy
10:55 AM 30.2 °F 25.4 °F 24.8 °F 80% 29.94 in 10.0 mi SW 4.6 mph - N/A   Overcast
11:35 AM 32.0 °F 23.6 °F 24.8 °F 75% 29.93 in 10.0 mi WSW 10.4 mph - N/A   Mostly Cloudy
11:55 AM 32.0 °F 23.6 °F 24.8 °F 75% 29.93 in 10.0 mi SW 10.4 mph - N/A   Mostly Cloudy
12:15 PM 32.0 °F 23.6 °F 23.0 °F 69% 29.92 in 10.0 mi SW 10.4 mph 18.4 mph 0.01 in   Mostly Cloudy
12:35 PM 33.8 °F 25.8 °F 23.0 °F 65% 29.91 in 10.0 mi WSW 10.4 mph - 0.01 in   Scattered Clouds
1:15 PM 33.8 °F 27.0 °F 24.8 °F 70% 29.90 in 10.0 mi WSW 8.1 mph - N/A   Partly Cloudy
1:35 PM 33.8 °F 25.8 °F 23.0 °F 65% 29.90 in 10.0 mi WSW 10.4 mph 18.4 mph N/A   Clear
2:15 PM 35.6 °F 28.0 °F 21.2 °F 56% 29.91 in 10.0 mi WSW 10.4 mph - N/A   Clear
2:35 PM 35.6 °F 26.6 °F 19.4 °F 52% 29.91 in 10.0 mi West 13.8 mph 20.7 mph N/A   Scattered Clouds
2:55 PM 35.6 °F 27.1 °F 19.4 °F 52% 29.92 in 10.0 mi WSW 12.7 mph - N/A   Mostly Cloudy
3:15 PM 35.6 °F 29.9 °F 21.2 °F 56% 29.93 in 10.0 mi WNW 6.9 mph - N/A   Overcast
3:35 PM 33.8 °F 27.0 °F 19.4 °F 56% 29.93 in 10.0 mi WNW 8.1 mph - N/A   Mostly Cloudy
3:55 PM 33.8 °F 28.6 °F 19.4 °F 56% 29.94 in 10.0 mi WNW 5.8 mph - N/A   Mostly Cloudy
4:15 PM 33.8 °F 30.8 °F 19.4 °F 56% 29.95 in 10.0 mi NW 3.5 mph - N/A   Partly Cloudy
4:35 PM 33.8 °F 30.8 °F 19.4 °F 56% 29.96 in 10.0 mi WNW 3.5 mph - N/A   Mostly Cloudy
4:55 PM 30.2 °F 24.3 °F 19.4 °F 64% 29.97 in 10.0 mi West 5.8 mph - N/A   Mostly Cloudy
5:15 PM 32.0 °F 24.2 °F 19.4 °F 60% 29.99 in 10.0 mi West 9.2 mph - N/A   Scattered Clouds
5:35 PM 32.0 °F 23.6 °F 17.6 °F 55% 30.01 in 10.0 mi WNW 10.4 mph 16.1 mph N/A   Clear
5:55 PM 30.2 °F 22.6 °F 17.6 °F 60% 30.02 in 10.0 mi WNW 8.1 mph 16.1 mph N/A   Scattered Clouds
6:15 PM 30.2 °F 21.9 °F 14.0 °F 51% 30.03 in 10.0 mi West 9.2 mph - N/A   Scattered Clouds
6:35 PM 30.2 °F 19.3 °F 12.2 °F 47% 30.04 in 10.0 mi West 15.0 mph 21.9 mph N/A   Clear
6:55 PM 28.4 °F 15.8 °F 8.6 °F 43% 30.06 in 10.0 mi WNW 18.4 mph 24.2 mph N/A   Clear
7:15 PM 28.4 °F 18.5 °F 8.6 °F 43% 30.08 in 10.0 mi NW 11.5 mph 20.7 mph N/A   Clear
7:35 PM 26.6 °F 16.8 °F 5.0 °F 40% 30.09 in 10.0 mi WNW 10.4 mph 23.0 mph N/A   Clear
8:15 PM 24.8 °F 12.9 °F 1.4 °F 36% 30.12 in 10.0 mi WNW 13.8 mph 25.3 mph N/A   Clear
8:35 PM 24.8 °F 13.4 °F -0.4 °F 34% 30.13 in 10.0 mi WNW 12.7 mph 20.7 mph N/A   Clear
8:55 PM 24.8 °F 15.3 °F -2.2 °F 31% 30.14 in 10.0 mi NW 9.2 mph 17.3 mph N/A   Clear
9:15 PM 23.0 °F 11.1 °F -4.0 °F 31% 30.15 in 10.0 mi WNW 12.7 mph 18.4 mph N/A   Clear
9:35 PM 21.2 °F 8.9 °F -5.8 °F 30% 30.16 in 10.0 mi WNW 12.7 mph 20.7 mph N/A   Clear
9:55 PM 21.2 °F 10.1 °F -2.2 °F 36% 30.18 in 10.0 mi West 10.4 mph 19.6 mph N/A   Clear
10:15 PM 21.2 °F 10.9 °F -5.8 °F 30% 30.19 in 10.0 mi WNW 9.2 mph 19.6 mph N/A   Clear
10:35 PM 19.4 °F 7.2 °F -9.4 °F 28% 30.19 in 10.0 mi WNW 11.5 mph 20.7 mph N/A   Clear
10:55 PM 19.4 °F 7.9 °F -9.4 °F 28% 30.20 in 10.0 mi West 10.4 mph 18.4 mph N/A   Clear
11:15 PM 17.6 °F 8.2 °F -9.4 °F 30% 30.22 in 10.0 mi WNW 6.9 mph - N/A   Clear
11:35 PM 17.6 °F 7.3 °F -7.6 °F 32% 30.23 in 10.0 mi WNW 8.1 mph - N/A   Clear
11:55 PM 17.6 °F 6.4 °F -5.8 °F 35% 30.25 in 10.0 mi WNW 9.2 mph 18.4 mph N/A   Clear